This demonstration page uses our WeatherBlox Daily Observations layout. Learn more.

Left ArrowRight Arrow

41.86663, -103.66717

Hourly Observations for November 25, 2019

Temp ( °F °C ) Dew Point ( °F °C ) Humidity (%) Winds ( mph kmh ) Pressure ( in mb ) Visibility ( mi km ) Precip ( " mm )
12:53 am 00:53 Clear 37 2.8 26 -3.3 65 65 N 7 11 29.72 1006 10 16 0.00 0.00
1:53 am 01:53 Mostly Clear 37 2.8 29 -1.7 73 73 WNW 6 9 29.73 1007 10 16 0.00 0.00
2:53 am 02:53 Cloudy 36 2.2 28 -2.2 73 73 W 6 9 29.75 1008 10 16 0.00 0.00
3:53 am 03:53 Cloudy 38 3.3 28 -2.2 68 68 NNW 9 15 29.77 1008 10 16 0.00 0.00
4:53 am 04:53 Cloudy 37 2.8 29 -1.7 73 73 NNW 8 13 29.80 1009 10 16 0.00 0.00
5:53 am 05:53 Cloudy 37 2.8 30 -1.1 76 76 WNW 8 13 29.81 1010 10 16 0.00 0.00
6:53 am 06:53 Cloudy 35 1.7 28 -2.2 76 76 WNW 9 15 29.81 1010 10 16 0.00 0.00
7:53 am 07:53 Cloudy 35 1.7 26 -3.3 70 70 NW 12 19 29.81 1010 10 16 0.00 0.00
8:53 am 08:53 Mostly Cloudy 37 2.8 25 -3.9 62 62 WNW 8 13 29.81 1010 10 16 0.00 0.00
9:53 am 09:53 Cloudy 39 3.9 24 -4.4 55 55 WNW 10 17 29.81 1009 10 16 0.00 0.00
10:53 am 10:53 Cloudy 40 4.4 18 -7.8 41 41 NNW 9 15 29.80 1009 10 16 0.00 0.00
11:53 am 11:53 Mostly Cloudy 41 5 19 -7.2 41 41 N 12 19 29.77 1008 10 16 0.00 0.00
12:53 pm 12:53 Cloudy 40 4.4 18 -7.8 41 41 N 6 9 29.76 1008 10 16 0.00 0.00
1:53 pm 13:53 Cloudy 40 4.4 16 -8.9 38 38 N 3 6 29.73 1007 10 16 0.00 0.00
2:53 pm 14:53 Cloudy 40 4.4 14 -10 35 35 N 3 6 29.72 1006 10 16 0.00 0.00
3:53 pm 15:53 Cloudy 38 3.3 17 -8.3 43 43 SSE 5 7 29.73 1007 10 16 0.00 0.00
4:53 pm 16:53 Cloudy 35 1.7 22 -5.6 59 59 VRB 6 9 29.77 1008 10 16 0.00 0.00
5:22 pm 17:22 Cloudy with Light Snow 34 1 27 -3 75 75 E 7 11 29.83 1010 3 5 0.00 0.00
5:36 pm 17:36 Cloudy with Light Snow 30 -1 28 -2 93 93 ENE 8 13 29.85 1011 2 3 0.00 0.00
5:53 pm 17:53 Cloudy with Light Snow 31 -0.6 29 -1.7 92 92 E 7 11 29.79 1009 2 2 0.01 0.25
6:07 pm 18:07 Cloudy with Light Snow 31 -0.6 29 -1.7 92 92 E 5 7 29.85 1011 2 3 0.01 0.25
6:18 pm 18:18 Cloudy with Light Snow 31 -0.6 29 -1.7 92 92 E 7 11 29.85 1011 2 2 0.01 0.25
6:46 pm 18:46 Cloudy with Light Snow 30 -1 28 -2 93 93 E 6 9 29.85 1011 2 3 0.00 0.00
6:53 pm 18:53 Cloudy with Light Snow 30 -1.1 29 -1.7 96 96 E 7 11 29.78 1009 2 2 0.02 0.51
7:53 pm 19:53 Cloudy with Light Snow 30 -1.1 29 -1.7 96 96 ENE 8 13 29.78 1008 1 2 0.03 0.76
8:05 pm 20:05 Mostly Cloudy with Light Snow 30 -1.1 29 -1.7 96 96 ENE 8 13 29.83 1010 1 2 0.00 0.00
8:53 pm 20:53 Mostly Cloudy with Light Snow 30 -1.1 29 -1.7 96 96 ENE 13 20 29.75 1008 1 1 0.04 1.02
9:02 pm 21:02 Mostly Cloudy with Light Snow 30 -1 28 -2 93 93 ENE 13 20 29.83 1010 1 2 0.00 0.00
9:10 pm 21:10 Cloudy with Light Snow 30 -1 28 -2 93 93 E 13 20 29.83 1010 1 2 0.00 0.00
9:32 pm 21:32 Cloudy with Light Snow 30 -1 28 -2 93 93 E 14 22 29.83 1010 1 2 0.00 0.00
9:53 pm 21:53 Cloudy with Light Snow 30 -1.1 28 -2.2 92 92 E 14 22 29.74 1007 1 2 0.02 0.51
10:00 pm 22:00 Mostly Cloudy with Light Snow 30 -1 28 -2 93 93 E 14 22 29.83 1010 1 2 0.00 0.00
10:07 pm 22:07 Mostly Cloudy with Light Snow 29 -1.7 28 -2.2 96 96 E 14 22 29.83 1010 1 1 0.02 0.51
10:15 pm 22:15 Mostly Cloudy with Light Snow 29 -1.7 28 -2.2 96 96 E 14 22 29.83 1010 1 2 0.02 0.51
10:45 pm 22:45 Mostly Cloudy with Light Snow 29 -1.7 27 -2.8 92 92 ENE 16 26 29.83 1010 1 1 0.04 1.02
10:53 pm 22:53 Mostly Cloudy with Light Snow 29 -1.7 27 -2.8 92 92 ENE 15 24 29.71 1006 1 2 0.05 1.27
11:13 pm 23:13 Cloudy with Light Snow 29 -1.7 27 -2.8 92 92 ENE 18 30 29.83 1010 2 2 0.00 0.00
11:22 pm 23:22 Cloudy with Light Snow 28 -2 27 -3 93 93 ENE 15 24 29.83 1010 3 4 0.00 0.00
11:35 pm 23:35 Cloudy with Light Snow 30 -1.1 27 -2.8 88 88 ENE 15 24 29.83 1010 2 2 0.01 0.25
11:53 pm 23:53 Cloudy with Light Snow 30 -1.1 27 -2.8 88 88 ENE 14 22 29.70 1006 2 3 0.01 0.25

Powered by AerisWeather